Location: Unspecified
(35.7250°N, 0.0000°E)
Time: 06:42:10
(UTC+00:00)

Explorer 7 - Pass Details

Date: 19 June 2019
Orbit: 485 x 680 km, 50.3° (Epoch: 17 July)

Event Time Altitude Azimuth Distance (km) Brightness Sun altitude
Rises 15:07:53 0° 314° (NW) 2,995 11.0 48.0°
Reaches altitude 10° 15:10:23 10° 323° (NW) 2,098 10.2 47.5°
Maximum altitude 15:14:52 35° 30° (NNE) 1,081 8.5 46.6°
Drops below altitude 10° 15:19:23 10° 96° (E) 2,111 9.5 45.7°
Sets 15:21:54 0° 105° (ESE) 3,016 10.2 45.2°
